| time (UTC) | temp C | wind direction | speed KPH | gust KPH | rain 1hr cm | rain 24hr cm | rain mn cm | humidity % | barometer mb |
| 20260902014515 | 13 | 220 | 3.2 | 9.7 | 0.00 | 0.10 | 0.00 | 91 | 1014.0 |
| 20260902013514 | 13 | 228 | 6.4 | 11.3 | 0.00 | 0.10 | 0.00 | 90 | 1014.0 |
| 20260902010514 | 14 | 257 | 4.8 | 11.3 | 0.00 | 0.10 | 0.00 | 88 | 1014.1 |
| 20260902005514 | 14 | 260 | 9.7 | 14.5 | 0.00 | 0.10 | 0.00 | 88 | 1014.2 |
| 20260902003514 | 14 | 253 | 9.7 | 24.1 | 0.00 | 0.10 | 0.00 | 87 | 1014.1 |
| 20260902001515 | 15 | 257 | 12.9 | 19.3 | 0.00 | 0.10 | 0.00 | 88 | 1014.2 |
| 20260901235515 | 14 | 269 | 11.3 | 19.3 | 0.00 | 0.10 | 0.00 | 88 | 1014.2 |
| 20260901234515 | 14 | 310 | 14.5 | 20.9 | 0.00 | 0.10 | 0.00 | 88 | 1014.2 |
| 20260901233514 | 14 | 284 | 9.7 | 25.7 | 0.00 | 0.10 | 0.00 | 88 | 1014.3 |
| 20260901231515 | 15 | 276 | 14.5 | 24.1 | 0.00 | 0.10 | 0.00 | 89 | 1014.2 |
| 20260901225516 | 15 | 271 | 19.3 | 27.4 | 0.00 | 0.10 | 0.00 | 91 | 1014.0 |
| 20260901222514 | 15 | 264 | 14.5 | 25.7 | 0.00 | 0.10 | 0.00 | 91 | 1013.8 |
| 20260901221509 | 15 | 248 | 14.5 | 24.1 | 0.00 | 0.10 | 0.00 | 91 | 1013.8 |
| 20260901220514 | 16 | 260 | 11.3 | 22.5 | 0.00 | 0.10 | 0.00 | 90 | 1013.8 |
| 20260901215515 | 15 | 274 | 6.4 | 11.3 | 0.00 | 0.00 | 0.00 | 88 | 1013.9 |
| 20260901213515 | 15 | 282 | 4.8 | 11.3 | 0.00 | 0.00 | 0.00 | 88 | 1013.8 |
| 20260901210514 | 15 | 272 | 3.2 | 4.8 | 0.00 | 0.00 | 0.00 | 87 | 1013.5 |
| 20260901203515 | 15 | 292 | 4.8 | 8.0 | 0.00 | 0.03 | 0.00 | 85 | 1013.5 |
| 20260901201514 | 16 | 286 | 3.2 | 9.7 | 0.00 | 0.03 | 0.00 | 84 | 1013.5 |
| 20260901200514 | 16 | 287 | 6.4 | 14.5 | 0.00 | 0.03 | 0.00 | 84 | 1013.4 |
| 20260901193514 | 16 | 291 | 4.8 | 14.5 | 0.00 | 0.03 | 0.00 | 82 | 1013.2 |
| 20260901184516 | 17 | 278 | 11.3 | 19.3 | 0.00 | 0.03 | 0.00 | 86 | 1012.7 |
| 20260901183514 | 17 | 232 | 14.5 | 20.9 | 0.00 | 0.03 | 0.00 | 86 | 1012.6 |
| 20260901182515 | 17 | 253 | 12.9 | 22.5 | 0.00 | 0.03 | 0.00 | 86 | 1012.6 |
| 20260901180514 | 17 | 274 | 11.3 | 24.1 | 0.00 | 0.03 | 0.00 | 86 | 1012.5 |
| 20260901175514 | 17 | 244 | 8.0 | 19.3 | 0.00 | 0.03 | 0.00 | 85 | 1012.4 |
| 20260901174514 | 17 | 246 | 11.3 | 20.9 | 0.00 | 0.03 | 0.00 | 84 | 1012.2 |
| 20260901173515 | 18 | 262 | 9.7 | 24.1 | 0.00 | 0.03 | 0.00 | 84 | 1012.2 |
| 20260901165515 | 18 | 226 | 11.3 | 19.3 | 0.00 | 0.03 | 0.00 | 81 | 1012.0 |
| 20260901164516 | 18 | 253 | 14.5 | 22.5 | 0.00 | 0.03 | 0.00 | 80 | 1011.9 |
| 20260901162515 | 20 | 268 | 9.7 | 19.3 | 0.00 | 0.03 | 0.00 | 77 | 1011.9 |
| 20260901160514 | 20 | 278 | 16.1 | 22.5 | 0.00 | 0.03 | 0.00 | 80 | 1011.8 |
| 20260901155515 | 19 | 304 | 12.9 | 22.5 | 0.00 | 0.03 | 0.00 | 82 | 1011.7 |
| 20260901151514 | 20 | 316 | 20.9 | 27.4 | 0.00 | 0.05 | 0.00 | 79 | 1011.6 |
| 20260901143516 | 21 | 272 | 14.5 | 24.1 | 0.00 | 0.10 | 0.00 | 76 | 1011.5 |
| 20260901135514 | 21 | 253 | 17.7 | 24.1 | 0.00 | 0.10 | 0.00 | 74 | 1011.6 |
| 20260901134515 | 21 | 241 | 12.9 | 24.1 | 0.00 | 0.10 | 0.00 | 74 | 1011.6 |
| 20260901133515 | 21 | 322 | 11.3 | 16.1 | 0.00 | 0.10 | 0.00 | 74 | 1011.6 |
| 20260901124515 | 20 | 344 | 14.5 | 20.9 | 0.00 | 0.10 | 0.00 | 75 | 1011.5 |
| 20260901122515 | 20 | 286 | 11.3 | 20.9 | 0.00 | 0.10 | 0.00 | 79 | 1011.5 |
| 20260901115514 | 19 | 236 | 9.7 | 22.5 | 0.00 | 0.10 | 0.00 | 81 | 1011.6 |
| 20260901114514 | 18 | 311 | 11.3 | 19.3 | 0.00 | 0.10 | 0.00 | 81 | 1011.7 |
| 20260901113514 | 19 | 329 | 12.9 | 25.7 | 0.00 | 0.10 | 0.00 | 81 | 1011.6 |
| 20260901105515 | 18 | 304 | 11.3 | 19.3 | 0.00 | 0.13 | 0.00 | 86 | 1011.5 |
| 20260901103515 | 17 | 286 | 14.5 | 24.1 | 0.00 | 0.23 | 0.00 | 85 | 1011.5 |
| 20260901102515 | 18 | 337 | 12.9 | 24.1 | 0.00 | 0.30 | 0.00 | 85 | 1011.3 |
| 20260901101515 | 18 | 330 | 16.1 | 24.1 | 0.00 | 0.33 | 0.00 | 84 | 1011.4 |
| 20260901100514 | 18 | 275 | 16.1 | 25.7 | 0.00 | 0.33 | 0.00 | 85 | 1011.1 |
| 20260901093514 | 18 | 323 | 16.1 | 25.7 | 0.00 | 0.33 | 0.00 | 86 | 1011.0 |
| 20260901092515 | 18 | 335 | 9.7 | 25.7 | 0.00 | 0.33 | 0.00 | 88 | 1010.9 |
| 20260901090515 | 17 | 335 | 11.3 | 20.9 | 0.00 | 0.33 | 0.00 | 88 | 1010.7 |
| 20260901080514 | 17 | 296 | 11.3 | 22.5 | 0.00 | 0.33 | 0.00 | 90 | 1010.0 |
| 20260901075515 | 17 | 267 | 11.3 | 22.5 | 0.00 | 0.33 | 0.00 | 91 | 1009.9 |
| 20260901073514 | 17 | 288 | 11.3 | 20.9 | 0.00 | 0.33 | 0.00 | 91 | 1009.7 |
| 20260901070514 | 17 | 263 | 9.7 | 14.5 | 0.00 | 0.33 | 0.00 | 93 | 1009.5 |
| 20260901064516 | 16 | 303 | 8.0 | 16.1 | 0.00 | 0.33 | 0.00 | 94 | 1009.3 |
| 20260901062515 | 16 | 285 | 6.4 | 16.1 | 0.00 | 0.33 | 0.00 | 95 | 1009.1 |
| 20260901061515 | 16 | 288 | 3.2 | 11.3 | 0.00 | 0.33 | 0.00 | 95 | 1009.1 |
| 20260901055514 | 16 | 296 | 3.2 | 8.0 | 0.00 | 0.33 | 0.00 | 95 | 1009.0 |
| 20260901052515 | 15 | 336 | 4.8 | 11.3 | 0.00 | 0.33 | 0.00 | 95 | 1008.8 |
| 20260901050515 | 15 | 279 | 4.8 | 11.3 | 0.00 | 0.33 | 0.00 | 95 | 1008.6 |
| 20260901045515 | 15 | 270 | 4.8 | 14.5 | 0.00 | 0.33 | 0.00 | 95 | 1008.6 |
| 20260901043515 | 15 | 279 | 6.4 | 11.3 | 0.00 | 0.33 | 0.00 | 95 | 1008.4 |
| 20260901040515 | 15 | 267 | 3.2 | 9.7 | 0.00 | 0.33 | 0.00 | 95 | 1008.3 |
| 20260901035515 | 15 | 266 | 3.2 | 8.0 | 0.00 | 0.33 | 0.00 | 95 | 1008.2 |
| 20260901032515 | 15 | 230 | 6.4 | 9.7 | 0.00 | 0.33 | 0.00 | 95 | 1008.0 |
| 20260901031515 | 15 | 221 | 3.2 | 9.7 | 0.00 | 0.33 | 0.00 | 95 | 1008.0 |
| 20260901025514 | 15 | 249 | 3.2 | 11.3 | 0.00 | 0.33 | 0.00 | 95 | 1007.9 |
| 20260901024515 | 15 | 251 | 4.8 | 9.7 | 0.00 | 0.33 | 0.00 | 95 | 1007.9 |
| 20260901023517 | 15 | 247 | 4.8 | 11.3 | 0.00 | 0.33 | 0.00 | 95 | 1007.8 |
| 20260901021515 | 15 | 242 | 4.8 | 11.3 | 0.00 | 0.33 | 0.00 | 95 | 1007.8 |
| 20260901020515 | 15 | 225 | 9.7 | 12.9 | 0.00 | 0.33 | 0.00 | 95 | 1007.8 |
| 20260901015515 | 15 | 241 | 8.0 | 14.5 | 0.00 | 0.33 | 0.00 | 94 | 1007.7 |